Weather History for Greenville Downtown, SC

Change the Weather History Date:

Saturday, April 27, 2013

  Actual Average Record
Temperature  
Mean Temperature 58 °F -  
Max Temperature 63 °F 71 °F 84 °F (2012)
Min Temperature 54 °F 52 °F 45 °F (2004)
Degree Days  
Heating Degree Days 7    
Growing Degree Days 8 (Base 50)    
Moisture  
Dew Point 52 °F    
Average Humidity 83    
Maximum Humidity 94    
Minimum Humidity 46    
Precipitation  
Precipitation 0.26 in - - ()
Sea Level Pressure  
Sea Level Pressure 30.32 in    
Wind  
Wind Speed 5 mph (North)    
Max Wind Speed 8 mph    
Max Gust Speed -    
Visibility 8 miles    
Events Rain    
Averages and records for this station are not official NWS values.
T = Trace of Precipitation, MM = Missing Value Source: NWS Daily Summary

Daily Weather History Graph

Daily Weather History Graph

Search for Another Location

Airport:

Trip Planner

Search our weather history database for the weather conditions in past years. The results will help you decide how hot, cold, wet, or windy it might be!

Date:

Astronomy

Apr. 27, 2013 Rise Set
Actual Time 6:42 AM EDT 8:11 PM EDT
Civil Twilight 6:16 AM EDT 8:38 PM EDT
Nautical Twilight 5:44 AM EDT 9:10 PM EDT
Astronomical Twilight 5:10 AM EDT 9:44 PM EDT
Moon 10:35 PM EDT (4/27) 8:03 AM EDT (4/27)
Length of Visible Light 14h 22m
Length of Day
13h 28m
Waning Gibbous, 95% of the Moon is Illuminated
Apr 27
Waning Gibbous
May 2
Last Quarter
May 9
New
May 18
First Quarter
May 25
Full

Hourly Weather History & Observations

Time (EDT) Temp. Dew Point Humidity Pressure Visibility Wind Dir Wind Speed Gust Speed Precip Events Conditions
12:53 AM 62.1 °F 41.0 °F 46% 30.34 in 10.0 mi North 5.8 mph - N/A   Overcast
1:53 AM 61.0 °F 41.0 °F 48% 30.33 in 10.0 mi North 5.8 mph - N/A   Overcast
2:53 AM 61.0 °F 41.0 °F 48% 30.33 in 10.0 mi NE 4.6 mph - 0.00 in Rain Light Rain
3:53 AM 59.0 °F 46.0 °F 62% 30.33 in 10.0 mi SSE 3.5 mph - 0.00 in   Overcast
4:53 AM 59.0 °F 46.9 °F 64% 30.31 in 10.0 mi South 3.5 mph - N/A   Overcast
5:53 AM 57.9 °F 48.9 °F 72% 30.31 in 10.0 mi SW 6.9 mph - 0.00 in   Overcast
6:53 AM 55.9 °F 52.0 °F 87% 30.34 in 8.0 mi WSW 8.1 mph - 0.02 in Rain Light Rain
7:53 AM 55.0 °F 53.1 °F 93% 30.35 in 9.0 mi Variable 3.5 mph - 0.02 in Rain Light Rain
8:15 AM 55.4 °F 53.6 °F 94% 30.35 in 7.0 mi West 3.5 mph - 0.00 in   Overcast
8:36 AM 55.4 °F 53.6 °F 94% 30.35 in 8.0 mi West 3.5 mph - 0.00 in   Overcast
8:53 AM 55.9 °F 53.1 °F 90% 30.34 in 7.0 mi Calm Calm - 0.00 in   Overcast
9:53 AM 55.9 °F 54.0 °F 93% 30.35 in 7.0 mi WSW 3.5 mph - N/A   Overcast
10:53 AM 57.0 °F 54.0 °F 89% 30.35 in 9.0 mi West 3.5 mph - N/A   Overcast
11:53 AM 62.1 °F 54.0 °F 75% 30.35 in 10.0 mi WNW 3.5 mph - 0.00 in   Overcast
12:00 PM 62.6 °F 53.6 °F 72% 30.36 in 10.0 mi Variable 3.5 mph - N/A   Overcast
12:53 PM 61.0 °F 53.1 °F 75% 30.34 in 10.0 mi NW 4.6 mph - N/A   Overcast
1:09 PM 60.8 °F 53.6 °F 77% 30.35 in 10.0 mi WNW 4.6 mph - 0.01 in Rain Light Rain
1:39 PM 59.0 °F 55.4 °F 88% 30.36 in 5.0 mi WNW 5.8 mph - 0.03 in Rain Rain
1:53 PM 57.9 °F 55.0 °F 90% 30.36 in 3.0 mi WNW 8.1 mph - 0.06 in Rain Rain
2:53 PM 57.0 °F 54.0 °F 89% 30.34 in 5.0 mi NW 4.6 mph - 0.12 in Rain Light Rain
3:03 PM 57.2 °F 55.4 °F 94% 30.34 in 7.0 mi North 3.5 mph - 0.00 in Rain Light Rain
3:53 PM 57.9 °F 55.0 °F 90% 30.32 in 5.0 mi ENE 4.6 mph - 0.04 in Rain Light Rain
4:42 PM 57.2 °F 53.6 °F 88% 30.32 in 10.0 mi NE 6.9 mph - 0.00 in   Overcast
4:53 PM 57.0 °F 54.0 °F 89% 30.32 in 10.0 mi NE 5.8 mph - 0.00 in   Overcast
5:00 PM 57.2 °F 53.6 °F 88% 30.33 in 10.0 mi NE 6.9 mph - 0.00 in Rain Light Rain
5:19 PM 57.2 °F 53.6 °F 88% 30.32 in 10.0 mi NE 8.1 mph - 0.00 in   Overcast
5:36 PM 55.4 °F 53.6 °F 94% 30.31 in 9.0 mi ENE 8.1 mph - 0.00 in   Overcast
5:53 PM 55.9 °F 52.0 °F 87% 30.30 in 10.0 mi East 8.1 mph - 0.00 in   Overcast
6:53 PM 55.0 °F 52.0 °F 89% 30.30 in 10.0 mi NNE 5.8 mph - N/A   Overcast
7:39 PM 55.4 °F 51.8 °F 88% 30.29 in 7.0 mi NNE 5.8 mph - N/A   Overcast
7:53 PM 55.0 °F 52.0 °F 89% 30.29 in 8.0 mi NNE 6.9 mph - N/A   Overcast
8:53 PM 55.0 °F 52.0 °F 89% 30.26 in 9.0 mi NE 4.6 mph - N/A   Overcast
9:00 PM 55.4 °F 51.8 °F 88% 30.27 in 9.0 mi NE 3.5 mph - N/A   Overcast
9:32 PM 55.4 °F 51.8 °F 88% 30.27 in 8.0 mi NE 3.5 mph - N/A   Overcast
9:53 PM 55.0 °F 52.0 °F 89% 30.26 in 7.0 mi NE 4.6 mph - N/A   Overcast
10:53 PM 54.0 °F 52.0 °F 93% 30.25 in 9.0 mi ENE 6.9 mph - N/A   Overcast
11:53 PM 54.0 °F 52.0 °F 93% 30.25 in 10.0 mi NE 4.6 mph - N/A   Overcast